EW3244 Weather Reports


Display with metric or nautical units.
time (UTC)temp
F
wind
direction
speed
MPH
gust
MPH
rain 1hr
in
rain 24hr
in
rain mn
in
humidity
%
barometer
mb
20260504173021 56 95 6.0 15.0 0.00 0.24 0.24 43 1003.9
20260504171517 56 86 9.0 17.0 0.00 0.24 0.24 42 1004.0
20260504081515 54 59 6.0 9.0 0.00 0.24 0.24 79 1003.0
20260504044548 47 74 0.0 3.0 0.06 0.24 0.24 59 1003.4
20260504043048 47 52 1.0 2.0 0.06 0.23 0.23 61 1003.6
20260504041543 47 3 0.0 1.0 0.08 0.21 0.21 64 1003.6
20260504040042 47 3 0.0 0.0 0.09 0.20 0.20 65 1003.7
20260504034539 46 3 0.0 0.0 0.09 0.18 0.18 68 1003.6
20260504033038 46 3 0.0 0.0 0.10 0.17 0.17 70 1003.8
20260504031550 46 3 0.0 0.0 0.10 0.13 0.13 71 1003.8
20260504030038 46 3 0.0 0.0 0.09 0.11 0.11 73 1003.9
20260504024533 46 3 0.0 1.0 0.08 0.09 0.09 74 1004.0
20260504023034 46 3 0.0 2.0 0.06 0.06 0.06 76 1004.0
20260504021530 46 3 0.0 2.0 0.03 0.03 0.03 77 1004.2
20260504020028 46 297 0.0 1.0 0.02 0.02 0.02 79 1004.3
20260504014528 46 297 0.0 1.0 0.01 0.01 0.01 80 1004.4
20260504013025 46 297 0.0 1.0 0.00 0.00 0.00 81 1004.6
20260504011522 46 297 0.0 2.0 0.00 0.00 0.00 81 1005.0
20260504010020 46 15 1.0 4.0 0.00 0.00 0.00 81 1005.2
20260504004522 46 315 0.0 2.0 0.00 0.00 0.00 82 1005.4
20260504003018 45 288 0.0 1.0 0.00 0.00 0.00 81 1005.0
20260504001517 45 288 0.0 1.0 0.00 0.00 0.00 81 1004.9
20260504000015 45 288 0.0 1.0 0.00 0.00 0.00 81 1005.1
20260503234512 45 288 0.0 3.0 0.00 0.00 0.00 81 1005.5
20260503233016 45 305 0.0 4.0 0.00 0.00 0.00 81 1005.7
20260503231507 45 301 0.0 2.0 0.00 0.00 0.00 80 1005.7
20260503230006 44 275 0.0 3.0 0.00 0.00 0.00 81 1005.7
20260503224506 44 295 0.0 2.0 0.00 0.00 0.00 82 1005.8
20260503223003 44 332 0.0 0.0 0.00 0.00 0.00 82 1006.2
20260503221606 44 332 0.0 1.0 0.00 0.00 0.00 82 1006.2
20260503220057 45 332 0.0 1.0 0.00 0.00 0.00 83 1006.3
20260503214555 45 239 0.0 1.0 0.00 0.00 0.00 83 1006.5
20260503213053 45 239 0.0 2.0 0.00 0.00 0.00 82 1006.5
20260503211549 46 284 0.0 3.0 0.00 0.00 0.00 82 1006.6
20260503210048 46 272 0.0 1.0 0.00 0.00 0.00 82 1006.7
20260503204646 47 279 0.0 1.0 0.00 0.00 0.00 82 1006.9
20260503203054 47 284 0.0 3.0 0.00 0.00 0.00 81 1007.0
20260503201543 48 221 1.0 3.0 0.00 0.00 0.00 81 1007.1
20260503200040 48 275 0.0 1.0 0.00 0.00 0.00 80 1007.2
20260503194540 49 239 0.0 2.0 0.00 0.00 0.00 80 1007.1
20260503193038 50 238 0.0 2.0 0.00 0.00 0.00 79 1007.1
20260503191536 50 238 0.0 1.0 0.00 0.00 0.00 78 1007.2
20260503190031 50 238 0.0 1.0 0.00 0.00 0.00 78 1007.1
20260503184530 51 238 0.0 3.0 0.00 0.00 0.00 77 1007.1
20260503183028 51 242 1.0 4.0 0.00 0.00 0.00 76 1007.0
20260503181526 52 234 2.0 3.0 0.00 0.00 0.00 76 1007.0
20260503180026 52 238 0.0 3.0 0.00 0.00 0.00 76 1007.0
20260503174525 52 231 1.0 4.0 0.00 0.00 0.00 76 1007.0